Погода в Безенчуке

Погода в Безенчуке : погода сейчас, прогноз погоды и архив. Всё, что Вы хотите узнать о погоде в Безенчуке!

Хотите узнать прогноз погоды в Безенчуке? Тогда Вам сюда: Погода в Безенчуке

Поиск расширенной информации на нашем сайте:

Другие новости

Новости СМИ2

Главная страница сайта

Новости сайта

03.07.2017

Напоминаем, что на нашем специализированном сайте Метеоцентр.Азия вы можете получить высокодетализированные автоматические прогнозы погоды по пунктам России, СНГ и мира в авиационном формате (включающие направление и скорость ветра, видимость, явления погоды, количество и форму облачности, нижнюю и верхнюю границу облачности).


Погода в Безенчуке - сегодня

Время (UTC), дата Ветер
(°,м/с) 
Видим.   Явления Облачность Т
(°С)
Тd
(°С)
f(%) Тe
(°С)
Pmin
(гПа)
dP
(гПа)
Po
(мм)
O2
(г/м3)
Тmin Tmax R s Состояние
почвы
09 13.01.18 310 (СЗ) 20000 м    ясно 
-15.6 -18.9 76 -18  1041.4  0.2  776  333           
12 13.01.18 310 (СЗ) 20000 м    ясно 
-14.8 -18.3 75 -17  1041  -0.4  776  332           
15 13.01.18 280 (З) 23000 м    ясно 
-22.2 -24.1 85 -23  1041.5  0.3  776  342    -14.5       
18 13.01.18 240 (ЮЗ) 24000 м    ясно 
-24.1 -26.6 80 -25  1041.2  -0.3  776  345           
21 13.01.18 240 (ЮЗ) 23000 м    ясно 
-24.1 -26.3 82 -25  1040.9  -0.3  776  345           
00 14.01.18 260 (З) 24000 м    ясно 
-22.8 -25 82 -23  1040  -0.9  775  342           
03 14.01.18 240 (ЮЗ) 23000 м    ясно 
-22.2 -24.3 83 -23  1038.8  -1.2  774  341  -25.5         
06 14.01.18 240 (ЮЗ) 4000 м  слаб. снег  10/0 средняя, верхняя 
[Ac As|Ci fib]
-18.4 -20.3 85 -19  1037.9  -0.8  773  336           
09 14.01.18 280 (З) 20000 м  {снег}  10/3 1000 м средняя 
[Sc|As trans]
-12.9 -14.7 86 -15  1036.9  -0.9  773  328           
12 14.01.18 240 (ЮЗ) 4000 м  слаб. снег  10/3 1000 м средняя, верхняя 
[Sc|Ac As|Cs]
-11.4 -13.4 85 -13  1036.9  773  326           
15 14.01.18 240 (ЮЗ) 20000 м  {снег}  9/0 средняя 
[Ac As]
-13.4 -14.8 89 -13  1037  0.1  773  329    -11.4  0.2     
18 14.01.18 тихо ()   22000 м  {снег}  10/6 600 м средняя 
[Sc|As trans]
-12.7 -14.1 89 -13  1037.3  0.3  773  328           
21 14.01.18 260 (З) 23000 м    10/0 средняя 
[Ac As]
-11.3 -12.7 89 -11  1038.2  0.9  774  326           
00 15.01.18 тихо ()   23000 м  в посл. час снег  10/0 средняя 
[Ac As]
-11.3 -12.7 89 -11  1038.7  0.5  774  327           
03 15.01.18 тихо ()   23000 м    10/0 средняя 
[Ac As]
-10.5 -12 89 -11  1038.9  0.3  774  326  -14.4      27  равномерный
сухой снег
100% 
06 15.01.18 тихо ()   20000 м    10/10 300 м 
[St]
-9.6 -11.2 88 -10  1040  1.1  775  325           
09 15.01.18 220 (ЮЗ) 20000 м    10/10 600 м 
[Sc]
-8.6 -10.5 86 -8  1040.4  1.1  775  324           
12 15.01.18 270 (З) 4000 м  слаб. снег  10/10 600 м 
[Ns]
-8 -9.7 88 -8  1040  -0.4  775  323           
15 15.01.18 240 (ЮЗ) 6000 м  слаб. снег  10/10 600 м 
[Ns]
-8.4 -9.5 92 -8  1039.7  -0.3  775  323    -8  0.2     
18 15.01.18 270 (З) 23000 м  {снег}  10/10 300 м 
[St]
-8.1 -9.4 90 -8  1038.9  -0.8  774  323           
21 15.01.18 250 (З) 22000 м    10/10 300 м 
[St]
-7.5 -8.7 91 -7  1038.8  0.1  774  322           
00 16.01.18 260 (З) 21000 м    10/10 300 м 
[Ns]
-7.2 -8.3 92 -9  1037.8  -1  773  321           
03 16.01.18 270 (З) 23000 м    10/10 240 м 
[St]
-7.1 -8.1 93 -9  1036.5  -1.3  773  321  -8.4    0.0  27  равномерный
сухой снег
100% 
06 16.01.18 320 (СЗ) 20000 м    10/10 270 м 
[St]
-6.9 -7.5 95 -8  1035.7  -1.3  772  320           
09 16.01.18 300 (СЗ) 20000 м    10/10 300 м 
[St]
-6.9 -7.7 94 -8  1034.6  -1.1  771  320           
Время (UTC), дата Ветер
(°,м/с) 
Видим.   Явления Облачность Т
(°С)
Тd
(°С)
f(%) Тe
(°С)
Pmin
(гПа)
dP
(гПа)
Po
(мм)
O2
(г/м3)
Тmin Tmax R s Состояние
почвы

Для получения пояснительной информации подведите курсор к названию столбца.

ПОГОДА в Безенчуке - архив

Всё, что Вы хотите узнать о погоде в Безенчуке - удобно и подробно!

Выберите нужную дату (начиная с 1 января 2015* года) и нажмите кнопку "Найти".
Будут отображены архивные сводки погоды по пункту Безенчук, начиная с указанной даты.


Отображать данные в формате CSV (для использования в таблицах Excel)


Внимание! Наш архив погоды предназначен исключительно для личного некоммерческого использования в познавательных целях. Если Вам необходимы официальные справки о состоянии погоды (для производственных, юридических, коммерческих и т.п. целей), обращайтесь в органы Росгидромета.

*Примечание: данная дата относится к архиву по метеостанциям СССР (Россия, СНГ, Балтия).
Архив по метеостанциям Зарубежной Европы и Азии (кроме Китая) хранится 10 дней, по другим регионам земного шара (Китай, Африка, Америка, Австралия, Океания) - 1 день.

Безенчук - район местоположения метеостанции


Название, широта, долгота, высота метеостанции:
Безенчук 53°ш. 49.4°д. 46 м над ур. моря [Российская Федерация]

Дополнительная информация

В oтличие oт бoльшинства пoгoдных сайтoв мы публикуем пoдрoбную метеoинфoрмацию в детальнoм прoфессиoнальнoм фoрмате.

Характеристики температуры и влажнoсти вoздуха измеряются на высoте 2 м в тени вдали oт зданий и деревьев.
Скoрoсть ветра измеряется на высoте 10 м (на урoвне рoста челoвека скoрoсть ветра ниже в 1.5-2 раза). Если метеoстанция нахoдится в гoрoде или в лесу, тo скoрoсть ветра занижена на 2-4 м/с пo сравнению с oткрытым местoм. Скoрoсть ветра над акватoриями крупных рек и oзёр, а также на вершинах хoлмoв на 2-5 м/с выше, чем в oбычных услoвиях.
Атмoсфернoе давление в разных тoчках местнoсти мoжет значительнo oтличаться oт давления на метеoстанции, в зависимoсти oт услoвий рельефа (при пoдъёме на 10 м давление пoнижается примернo на 1 мм рт.ст.).